星链-2368 (STARLINK-2368 )

导读 | 豆包AI

STARLINK-2368是美国太空探索技术公司(SpaceX)星链(Starlink)互联网星座项目中的一颗卫星,于2021年3月14日发射入轨。星链星座旨在为全球提供低延迟、高速率的卫星互联网服务,该卫星属于星链项目批量部署的卫星之一,承担着星座组网运行、覆盖服务的相关功能,助力星链系统全球覆盖目标的推进。

Basic Information
目录编号:
47908
目录名称:
STARLINK-2368
国际标识:
2021-021BA
轨道中心:
EARTH
卫星名称:
星链-2368
卫星全名:
星链-2368 (STARLINK-2368 )
卫星状态:
已陨落 最后检测时间 2025-12-23
发射日期:
2021-03-14 UTC
国别 :
美国 (US)
星等 :
--
Orbit Information
数据来源 国际轨道数据
星历时间: 2025-12-23T11:51:42+0800
轨道信息已过期81天
半长轴: 6534.898km
偏心率: 0.0006012
轨道倾角: 53.031°
近地点辐角 250.623°
升交点赤经 226.609°
平近点角 109.416°
近地点: 152.832km
远地点: 160.69km
周期: 87.623分钟
每日圈数: 16.43405
Detailed Information
固有亮度:
5
最大亮度:
2.5
卫星平台:
Starlink V1.0
覆盖范围:
全球
运营商:
太空探索技术公司
运营商所在国:
美国
制造商(研发单位):
太空探索技术公司
制造商所在国:
美国
使用方式:
暂无
Satellite Introduction
星链(Starlink)计划是由太空探索技术公司(SpaceX)提出的一个巨型低轨卫星互联网星座项目,计划在2019年至2024年间在太空搭建由约1.2万颗卫星组成的“星链”网络,其中1584颗将部署在地球上空550千米处的近地轨道,并从2020年开始工作。该卫星仍在工作。